Time,TemperatureF,DewpointF,PressureIn,WindDirection,WindDirectionDegrees,WindSpeedMPH,WindSpeedGustMPH,Humidity,HourlyPrecipIn,Conditions,Clouds,dailyrainin,SoftwareType,DateUTC
2013-05-27 00:01:00,47.0,38.8,30.10,WNW,290,0.0,0.0,73,0.00,,,0.00,Wunderground v.1.15,2013-05-27 04:01:00,
2013-05-27 00:02:00,46.9,39.0,30.10,WNW,289,0.0,0.0,74,0.00,,,0.00,Wunderground v.1.15,2013-05-27 04:02:00,
2013-05-27 00:05:00,46.6,39.1,30.10,WNW,290,0.0,0.0,75,0.00,,,0.00,Wunderground v.1.15,2013-05-27 04:05:00,
2013-05-27 00:06:00,46.5,39.0,30.10,WNW,290,0.0,0.0,75,0.00,,,0.00,Wunderground v.1.15,2013-05-27 04:06:00,
2013-05-27 00:12:00,46.3,39.8,30.10,WNW,290,1.0,1.0,78,0.00,,,0.00,Wunderground v.1.15,2013-05-27 04:12:00,
2013-05-27 00:14:00,46.4,39.6,30.10,WNW,290,0.0,1.0,77,0.00,,,0.00,Wunderground v.1.15,2013-05-27 04:14:00,
2013-05-27 00:19:00,46.5,39.7,30.11,WNW,290,0.0,1.0,77,0.00,,,0.00,Wunderground v.1.15,2013-05-27 04:19:00,
2013-05-27 00:24:00,46.3,39.5,30.10,WNW,290,0.0,0.0,77,0.00,,,0.00,Wunderground v.1.15,2013-05-27 04:24:00,
2013-05-27 00:29:00,46.2,39.4,30.10,WNW,290,0.0,0.0,77,0.00,,,0.00,Wunderground v.1.15,2013-05-27 04:29:00,
2013-05-27 00:35:00,45.9,39.1,30.10,WNW,290,0.0,0.0,77,0.00,,,0.00,Wunderground v.1.15,2013-05-27 04:35:00,
2013-05-27 00:40:00,45.8,39.3,30.10,WNW,290,0.0,0.0,78,0.00,,,0.00,Wunderground v.1.15,2013-05-27 04:40:00,
2013-05-27 00:45:00,45.6,39.5,30.11,WNW,290,0.0,0.0,79,0.00,,,0.00,Wunderground v.1.15,2013-05-27 04:45:00,
2013-05-27 00:50:00,45.5,39.4,30.11,WNW,290,0.0,0.0,79,0.00,,,0.00,Wunderground v.1.15,2013-05-27 04:50:00,
2013-05-27 00:55:00,45.5,39.7,30.11,WNW,290,0.0,0.0,80,0.00,,,0.00,Wunderground v.1.15,2013-05-27 04:55:00,
2013-05-27 01:01:00,45.6,39.8,30.11,WNW,289,0.0,0.0,80,0.00,,,0.00,Wunderground v.1.15,2013-05-27 05:01:00,
2013-05-27 01:06:00,45.7,39.6,30.11,WNW,290,0.0,0.0,79,0.00,,,0.00,Wunderground v.1.15,2013-05-27 05:06:00,
2013-05-27 01:11:00,45.7,39.6,30.11,WNW,289,0.0,0.0,79,0.00,,,0.00,Wunderground v.1.15,2013-05-27 05:11:00,
2013-05-27 01:16:00,45.3,38.8,30.11,WNW,289,0.0,0.0,78,0.00,,,0.00,Wunderground v.1.15,2013-05-27 05:16:00,
2013-05-27 01:21:00,44.8,38.7,30.11,WNW,290,0.0,0.0,79,0.00,,,0.00,Wunderground v.1.15,2013-05-27 05:21:00,
2013-05-27 01:27:00,44.5,39.0,30.11,WNW,289,0.0,0.0,81,0.00,,,0.00,Wunderground v.1.15,2013-05-27 05:27:00,
2013-05-27 01:32:00,44.5,39.3,30.11,WNW,290,0.0,0.0,82,0.00,,,0.00,Wunderground v.1.15,2013-05-27 05:32:00,
2013-05-27 01:37:00,44.4,38.9,30.11,WNW,290,0.0,0.0,81,0.00,,,0.00,Wunderground v.1.15,2013-05-27 05:37:00,
2013-05-27 01:42:00,43.9,38.8,30.11,WNW,290,0.0,0.0,82,0.00,,,0.00,Wunderground v.1.15,2013-05-27 05:42:00,
2013-05-27 01:47:00,43.6,38.8,30.11,WNW,290,0.0,0.0,83,0.00,,,0.00,Wunderground v.1.15,2013-05-27 05:47:00,
2013-05-27 01:53:00,43.4,39.2,30.11,WNW,290,0.0,0.0,85,0.00,,,0.00,Wunderground v.1.15,2013-05-27 05:53:00,
2013-05-27 01:58:00,43.3,39.1,30.11,WNW,290,0.0,0.0,85,0.00,,,0.00,Wunderground v.1.15,2013-05-27 05:58:00,
2013-05-27 02:03:00,43.1,39.2,30.11,WNW,290,0.0,0.0,86,0.00,,,0.00,Wunderground v.1.15,2013-05-27 06:03:00,
2013-05-27 02:08:00,42.7,38.8,30.11,WNW,290,0.0,0.0,86,0.00,,,0.00,Wunderground v.1.15,2013-05-27 06:08:00,
2013-05-27 02:13:00,42.6,39.0,30.11,WNW,290,0.0,0.0,87,0.00,,,0.00,Wunderground v.1.15,2013-05-27 06:13:00,
2013-05-27 02:18:00,42.4,39.1,30.12,WNW,290,0.0,0.0,88,0.00,,,0.00,Wunderground v.1.15,2013-05-27 06:18:00,
2013-05-27 02:23:00,42.5,39.5,30.12,WNW,289,0.0,0.0,89,0.00,,,0.00,Wunderground v.1.15,2013-05-27 06:23:00,
2013-05-27 02:28:00,42.3,39.3,30.12,WNW,290,0.0,0.0,89,0.00,,,0.00,Wunderground v.1.15,2013-05-27 06:28:00,
2013-05-27 02:33:00,41.9,38.6,30.11,WNW,290,0.0,0.0,88,0.00,,,0.00,Wunderground v.1.15,2013-05-27 06:33:00,
2013-05-27 02:38:00,41.8,39.1,30.11,WNW,289,0.0,0.0,90,0.00,,,0.00,Wunderground v.1.15,2013-05-27 06:38:00,
2013-05-27 02:43:00,41.9,39.2,30.11,WNW,290,0.0,0.0,90,0.00,,,0.00,Wunderground v.1.15,2013-05-27 06:43:00,
2013-05-27 02:48:00,41.9,38.9,30.12,WNW,289,0.0,0.0,89,0.00,,,0.00,Wunderground v.1.15,2013-05-27 06:48:00,
2013-05-27 02:53:00,41.9,38.9,30.12,WNW,289,0.0,0.0,89,0.00,,,0.00,Wunderground v.1.15,2013-05-27 06:53:00,
2013-05-27 02:59:00,42.1,38.8,30.12,WNW,289,0.0,0.0,88,0.00,,,0.00,Wunderground v.1.15,2013-05-27 06:59:00,
2013-05-27 03:04:00,42.5,39.2,30.12,WNW,290,0.0,0.0,88,0.00,,,0.00,Wunderground v.1.15,2013-05-27 07:04:00,
2013-05-27 03:09:00,42.9,39.0,30.12,WNW,290,0.0,0.0,86,0.00,,,0.00,Wunderground v.1.15,2013-05-27 07:09:00,
2013-05-27 03:14:00,42.8,38.9,30.12,WNW,290,0.0,0.0,86,0.00,,,0.00,Wunderground v.1.15,2013-05-27 07:14:00,
2013-05-27 03:19:00,43.2,39.0,30.12,WNW,289,0.0,0.0,85,0.00,,,0.00,Wunderground v.1.15,2013-05-27 07:19:00,
2013-05-27 03:24:00,43.5,39.3,30.12,WNW,290,0.0,0.0,85,0.00,,,0.00,Wunderground v.1.15,2013-05-27 07:24:00,
2013-05-27 03:29:00,43.4,39.2,30.12,WNW,290,0.0,0.0,85,0.00,,,0.00,Wunderground v.1.15,2013-05-27 07:29:00,
2013-05-27 03:34:00,43.5,39.0,30.12,WNW,289,0.0,0.0,84,0.00,,,0.00,Wunderground v.1.15,2013-05-27 07:34:00,
2013-05-27 03:39:00,43.4,38.9,30.12,WNW,290,0.0,0.0,84,0.00,,,0.00,Wunderground v.1.15,2013-05-27 07:39:00,
2013-05-27 03:44:00,43.2,38.7,30.12,WNW,290,0.0,0.0,84,0.00,,,0.00,Wunderground v.1.15,2013-05-27 07:44:00,
2013-05-27 03:49:00,43.3,38.8,30.12,WNW,289,0.0,0.0,84,0.00,,,0.00,Wunderground v.1.15,2013-05-27 07:49:00,
2013-05-27 03:54:00,43.2,38.4,30.12,WNW,289,0.0,0.0,83,0.00,,,0.00,Wunderground v.1.15,2013-05-27 07:54:00,
2013-05-27 03:59:00,42.6,37.8,30.12,WNW,289,0.0,0.0,83,0.00,,,0.00,Wunderground v.1.15,2013-05-27 07:59:00,
2013-05-27 04:04:00,42.5,38.3,30.12,WNW,290,0.0,0.0,85,0.00,,,0.00,Wunderground v.1.15,2013-05-27 08:04:00,
2013-05-27 04:09:00,42.4,38.5,30.12,WNW,289,0.0,0.0,86,0.00,,,0.00,Wunderground v.1.15,2013-05-27 08:09:00,
2013-05-27 04:14:00,42.6,38.7,30.12,WNW,290,0.0,1.0,86,0.00,,,0.00,Wunderground v.1.15,2013-05-27 08:14:00,
2013-05-27 04:19:00,42.7,38.5,30.12,WNW,290,0.0,1.0,85,0.00,,,0.00,Wunderground v.1.15,2013-05-27 08:19:00,
2013-05-27 04:24:00,42.7,38.5,30.12,WNW,290,0.0,0.0,85,0.00,,,0.00,Wunderground v.1.15,2013-05-27 08:24:00,
2013-05-27 04:29:00,42.5,38.3,30.12,WNW,290,0.0,0.0,85,0.00,,,0.00,Wunderground v.1.15,2013-05-27 08:29:00,
2013-05-27 04:35:00,42.0,37.5,30.12,WNW,290,0.0,0.0,84,0.00,,,0.00,Wunderground v.1.15,2013-05-27 08:35:00,
2013-05-27 04:40:00,41.6,37.4,30.12,WNW,290,0.0,0.0,85,0.00,,,0.00,Wunderground v.1.15,2013-05-27 08:40:00,
2013-05-27 04:45:00,41.2,37.3,30.12,WNW,290,0.0,0.0,86,0.00,,,0.00,Wunderground v.1.15,2013-05-27 08:45:00,
2013-05-27 04:50:00,40.7,36.8,30.13,WNW,289,0.0,0.0,86,0.00,,,0.00,Wunderground v.1.15,2013-05-27 08:50:00,
2013-05-27 04:55:00,41.2,37.9,30.13,WNW,290,0.0,0.0,88,0.00,,,0.00,Wunderground v.1.15,2013-05-27 08:55:00,
2013-05-27 05:00:00,41.7,38.1,30.13,WNW,289,0.0,0.0,87,0.00,,,0.00,Wunderground v.1.15,2013-05-27 09:00:00,
2013-05-27 05:05:00,42.1,38.2,30.13,WNW,287,0.0,1.0,86,0.00,,,0.00,Wunderground v.1.15,2013-05-27 09:05:00,
2013-05-27 05:10:00,42.5,38.0,30.13,WNW,287,0.0,1.0,84,0.00,,,0.00,Wunderground v.1.15,2013-05-27 09:10:00,
2013-05-27 05:15:00,43.1,38.3,30.13,WNW,283,0.0,2.0,83,0.00,,,0.00,Wunderground v.1.15,2013-05-27 09:15:00,
2013-05-27 05:20:00,43.1,38.0,30.13,WNW,283,0.0,2.0,82,0.00,,,0.00,Wunderground v.1.15,2013-05-27 09:20:00,
2013-05-27 05:25:00,43.0,37.9,30.13,WNW,283,0.0,1.0,82,0.00,,,0.00,Wunderground v.1.15,2013-05-27 09:25:00,
2013-05-27 05:30:00,43.1,38.0,30.14,WNW,283,0.0,1.0,82,0.00,,,0.00,Wunderground v.1.15,2013-05-27 09:30:00,
2013-05-27 05:35:00,43.3,38.2,30.14,West,270,2.0,2.0,82,0.00,,,0.00,Wunderground v.1.15,2013-05-27 09:35:00,
2013-05-27 05:40:00,43.8,38.0,30.14,West,264,1.0,2.0,80,0.00,,,0.00,Wunderground v.1.15,2013-05-27 09:40:00,
2013-05-27 05:45:00,44.2,38.1,30.14,WSW,257,3.0,3.0,79,0.00,,,0.00,Wunderground v.1.15,2013-05-27 09:45:00,
2013-05-27 05:50:00,44.6,38.2,30.14,West,263,0.0,3.0,78,0.00,,,0.00,Wunderground v.1.15,2013-05-27 09:50:00,
2013-05-27 05:55:00,44.8,38.4,30.14,West,271,0.0,1.0,78,0.00,,,0.00,Wunderground v.1.15,2013-05-27 09:55:00,
2013-05-27 06:00:00,44.8,38.4,30.14,West,273,0.0,1.0,78,0.00,,,0.00,Wunderground v.1.15,2013-05-27 10:00:00,
2013-05-27 06:06:00,44.9,38.5,30.14,West,270,0.0,0.0,78,0.00,,,0.00,Wunderground v.1.15,2013-05-27 10:06:00,
2013-05-27 06:11:00,44.9,38.5,30.14,West,270,0.0,0.0,78,0.00,,,0.00,Wunderground v.1.15,2013-05-27 10:11:00,
2013-05-27 06:16:00,45.2,38.7,30.14,West,270,0.0,0.0,78,0.00,,,0.00,Wunderground v.1.15,2013-05-27 10:16:00,
2013-05-27 06:21:00,45.9,39.1,30.14,WNW,284,0.0,0.0,77,0.00,,,0.00,Wunderground v.1.15,2013-05-27 10:21:00,
2013-05-27 06:26:00,46.5,39.3,30.15,WNW,283,0.0,2.0,76,0.00,,,0.00,Wunderground v.1.15,2013-05-27 10:26:00,
2013-05-27 06:31:00,47.1,39.2,30.15,WSW,257,1.0,1.0,74,0.00,,,0.00,Wunderground v.1.15,2013-05-27 10:31:00,
2013-05-27 06:36:00,47.7,39.5,30.15,West,281,1.0,3.0,73,0.00,,,0.00,Wunderground v.1.15,2013-05-27 10:36:00,
2013-05-27 06:41:00,48.1,39.9,30.15,West,281,0.0,1.0,73,0.00,,,0.00,Wunderground v.1.15,2013-05-27 10:41:00,
2013-05-27 06:46:00,48.4,39.8,30.15,West,266,1.0,3.0,72,0.00,,,0.00,Wunderground v.1.15,2013-05-27 10:46:00,
2013-05-27 06:51:00,48.8,40.2,30.15,West,279,0.0,1.0,72,0.00,,,0.00,Wunderground v.1.15,2013-05-27 10:51:00,
2013-05-27 06:56:00,49.1,40.1,30.15,WNW,287,0.0,2.0,71,0.00,,,0.00,Wunderground v.1.15,2013-05-27 10:56:00,
2013-05-27 07:01:00,49.5,40.5,30.15,West,278,0.0,1.0,71,0.00,,,0.00,Wunderground v.1.15,2013-05-27 11:01:00,
2013-05-27 07:06:00,49.9,40.5,30.15,West,281,2.0,2.0,70,0.00,,,0.00,Wunderground v.1.15,2013-05-27 11:06:00,
2013-05-27 07:11:00,50.4,40.6,30.15,West,266,0.0,2.0,69,0.00,,,0.00,Wunderground v.1.15,2013-05-27 11:11:00,
2013-05-27 07:16:00,50.8,41.0,30.15,West,278,0.0,2.0,69,0.00,,,0.00,Wunderground v.1.15,2013-05-27 11:16:00,
2013-05-27 07:21:00,51.3,40.7,30.15,WSW,256,2.0,4.0,67,0.00,,,0.00,Wunderground v.1.15,2013-05-27 11:21:00,
2013-05-27 07:26:00,51.8,41.2,30.16,WSW,256,2.0,4.0,67,0.00,,,0.00,Wunderground v.1.15,2013-05-27 11:26:00,
2013-05-27 07:31:00,52.2,40.8,30.16,WNW,292,0.0,3.0,65,0.00,,,0.00,Wunderground v.1.15,2013-05-27 11:31:00,
2013-05-27 07:36:00,52.8,41.4,30.16,WNW,294,1.0,3.0,65,0.00,,,0.00,Wunderground v.1.15,2013-05-27 11:36:00,
2013-05-27 07:41:00,53.1,41.6,30.16,WNW,295,2.0,2.0,65,0.00,,,0.00,Wunderground v.1.15,2013-05-27 11:41:00,
2013-05-27 07:46:00,53.6,41.7,30.16,West,266,1.0,2.0,64,0.00,,,0.00,Wunderground v.1.15,2013-05-27 11:46:00,
2013-05-27 07:51:00,54.2,41.9,30.16,West,271,2.0,3.0,63,0.00,,,0.00,Wunderground v.1.15,2013-05-27 11:51:00,
2013-05-27 07:56:00,54.8,41.6,30.16,West,266,0.0,4.0,61,0.00,,,0.00,Wunderground v.1.15,2013-05-27 11:56:00,
2013-05-27 08:01:00,55.4,41.3,30.16,WNW,293,3.0,4.0,59,0.00,,,0.00,Wunderground v.1.15,2013-05-27 12:01:00,
2013-05-27 08:07:00,55.8,41.7,30.16,North,356,0.0,4.0,59,0.00,,,0.00,Wunderground v.1.15,2013-05-27 12:07:00,
2013-05-27 08:12:00,56.3,41.7,30.16,West,263,1.0,4.0,58,0.00,,,0.00,Wunderground v.1.15,2013-05-27 12:12:00,
2013-05-27 08:17:00,56.7,40.7,30.16,WNW,283,3.0,5.0,55,0.00,,,0.00,Wunderground v.1.15,2013-05-27 12:17:00,
2013-05-27 08:22:00,57.0,41.4,30.16,West,275,0.0,6.0,56,0.00,,,0.00,Wunderground v.1.15,2013-05-27 12:22:00,
2013-05-27 08:27:00,57.4,40.9,30.16,WNW,283,1.0,6.0,54,0.00,,,0.00,Wunderground v.1.15,2013-05-27 12:27:00,
2013-05-27 08:32:00,57.8,41.3,30.16,West,273,3.0,5.0,54,0.00,,,0.00,Wunderground v.1.15,2013-05-27 12:32:00,
2013-05-27 08:37:00,58.2,41.6,30.16,West,278,3.0,5.0,54,0.00,,,0.00,Wunderground v.1.15,2013-05-27 12:37:00,
2013-05-27 08:42:00,58.6,41.5,30.16,West,280,2.0,6.0,53,0.00,,,0.00,Wunderground v.1.15,2013-05-27 12:42:00,
2013-05-27 08:47:00,59.0,41.4,30.16,WNW,294,1.0,6.0,52,0.00,,,0.00,Wunderground v.1.15,2013-05-27 12:47:00,
2013-05-27 08:53:00,59.6,42.9,30.16,WSW,245,1.0,3.0,54,0.00,,,0.00,Wunderground v.1.15,2013-05-27 12:53:00,
2013-05-27 08:58:00,60.3,42.6,30.16,WSW,255,3.0,5.0,52,0.00,,,0.00,Wunderground v.1.15,2013-05-27 12:58:00,
2013-05-27 09:03:00,60.3,42.1,30.15,WNW,293,4.0,5.0,51,0.00,,,0.00,Wunderground v.1.15,2013-05-27 13:03:00,
2013-05-27 09:08:00,60.5,41.2,30.15,WSW,256,2.0,6.0,49,0.00,,,0.00,Wunderground v.1.15,2013-05-27 13:08:00,
2013-05-27 09:13:00,60.6,41.8,30.15,North,356,2.0,6.0,50,0.00,,,0.00,Wunderground v.1.15,2013-05-27 13:13:00,
2013-05-27 09:18:00,61.1,41.8,30.15,SW,233,2.0,6.0,49,0.00,,,0.00,Wunderground v.1.15,2013-05-27 13:18:00,
2013-05-27 09:23:00,61.3,42.0,30.15,WNW,283,4.0,5.0,49,0.00,,,0.00,Wunderground v.1.15,2013-05-27 13:23:00,
2013-05-27 09:28:00,61.9,43.0,30.15,NNW,335,1.0,6.0,50,0.00,,,0.00,Wunderground v.1.15,2013-05-27 13:28:00,
2013-05-27 09:33:00,62.4,41.9,30.15,West,279,2.0,3.0,47,0.00,,,0.00,Wunderground v.1.15,2013-05-27 13:33:00,
2013-05-27 09:38:00,62.6,42.1,30.15,West,280,3.0,8.0,47,0.00,,,0.00,Wunderground v.1.15,2013-05-27 13:38:00,
2013-05-27 09:43:00,62.9,40.0,30.15,NNE,20,2.0,6.0,43,0.00,,,0.00,Wunderground v.1.15,2013-05-27 13:43:00,
2013-05-27 09:48:00,63.0,41.9,30.15,West,270,7.0,7.0,46,0.00,,,0.00,Wunderground v.1.15,2013-05-27 13:48:00,
2013-05-27 09:53:00,63.3,41.6,30.15,WNW,293,1.0,6.0,45,0.00,,,0.00,Wunderground v.1.15,2013-05-27 13:53:00,
2013-05-27 09:58:00,63.7,41.4,30.15,SSW,207,2.0,6.0,44,0.00,,,0.00,Wunderground v.1.15,2013-05-27 13:58:00,
2013-05-27 10:03:00,64.0,40.4,30.15,SW,231,2.0,6.0,42,0.00,,,0.00,Wunderground v.1.15,2013-05-27 14:03:00,
2013-05-27 10:08:00,64.2,40.6,30.15,SSW,192,2.0,7.0,42,0.00,,,0.00,Wunderground v.1.15,2013-05-27 14:08:00,
2013-05-27 10:13:00,64.7,41.7,30.15,NW,314,1.0,4.0,43,0.00,,,0.00,Wunderground v.1.15,2013-05-27 14:13:00,
2013-05-27 10:19:00,64.9,40.6,30.15,WNW,283,3.0,9.0,41,0.00,,,0.00,Wunderground v.1.15,2013-05-27 14:19:00,
2013-05-27 10:24:00,64.8,39.2,30.14,NW,304,4.0,8.0,39,0.00,,,0.00,Wunderground v.1.15,2013-05-27 14:24:00,
2013-05-27 10:29:00,64.8,39.2,30.14,NW,304,3.0,12.0,39,0.00,,,0.00,Wunderground v.1.15,2013-05-27 14:29:00,
2013-05-27 10:34:00,65.1,39.5,30.14,NNE,23,2.0,8.0,39,0.00,,,0.00,Wunderground v.1.15,2013-05-27 14:34:00,
2013-05-27 10:39:00,65.8,40.8,30.14,NNW,340,2.0,8.0,40,0.00,,,0.00,Wunderground v.1.15,2013-05-27 14:39:00,
2013-05-27 10:44:00,66.1,39.7,30.14,WNW,283,4.0,7.0,38,0.00,,,0.00,Wunderground v.1.15,2013-05-27 14:44:00,
2013-05-27 10:49:00,66.3,41.2,30.14,WNW,285,2.0,7.0,40,0.00,,,0.00,Wunderground v.1.15,2013-05-27 14:49:00,
2013-05-27 10:54:00,66.8,41.0,30.14,SW,228,3.0,4.0,39,0.00,,,0.00,Wunderground v.1.15,2013-05-27 14:54:00,
2013-05-27 10:59:00,67.3,39.4,30.14,West,266,2.0,8.0,36,0.00,,,0.00,Wunderground v.1.15,2013-05-27 14:59:00,
2013-05-27 11:04:00,67.1,39.2,30.14,North,352,4.0,7.0,36,0.00,,,0.00,Wunderground v.1.15,2013-05-27 15:04:00,
2013-05-27 11:09:00,67.2,40.0,30.14,WSW,256,8.0,8.0,37,0.00,,,0.00,Wunderground v.1.15,2013-05-27 15:09:00,
2013-05-27 11:14:00,67.1,37.0,30.14,SE,136,1.0,7.0,33,0.00,,,0.00,Wunderground v.1.15,2013-05-27 15:14:00,
2013-05-27 11:20:00,67.4,39.5,30.14,NW,304,3.0,7.0,36,0.00,,,0.00,Wunderground v.1.15,2013-05-27 15:20:00,
2013-05-27 11:25:00,67.8,40.6,30.13,West,271,0.0,7.0,37,0.00,,,0.00,Wunderground v.1.15,2013-05-27 15:25:00,
2013-05-27 11:30:00,68.8,40.0,30.13,WNW,288,4.0,7.0,35,0.00,,,0.00,Wunderground v.1.15,2013-05-27 15:30:00,
2013-05-27 11:35:00,68.0,40.0,30.13,West,266,1.0,8.0,36,0.00,,,0.00,Wunderground v.1.15,2013-05-27 15:35:00,
2013-05-27 11:40:00,68.1,40.8,30.13,West,276,1.0,3.0,37,0.00,,,0.00,Wunderground v.1.15,2013-05-27 15:40:00,
2013-05-27 11:45:00,68.5,39.0,30.13,WSW,242,3.0,7.0,34,0.00,,,0.00,Wunderground v.1.15,2013-05-27 15:45:00,
2013-05-27 11:50:00,69.0,38.7,30.12,NNW,333,1.0,3.0,33,0.00,,,0.00,Wunderground v.1.15,2013-05-27 15:50:00,
2013-05-27 11:56:00,69.2,39.6,30.12,ESE,107,1.0,7.0,34,0.00,,,0.00,Wunderground v.1.15,2013-05-27 15:56:00,
2013-05-27 12:01:00,70.3,39.8,30.12,SSE,168,2.0,3.0,33,0.00,,,0.00,Wunderground v.1.15,2013-05-27 16:01:00,
2013-05-27 12:06:00,70.4,39.9,30.12,NW,309,2.0,11.0,33,0.00,,,0.00,Wunderground v.1.15,2013-05-27 16:06:00,
2013-05-27 12:11:00,69.8,37.8,30.12,NNE,32,0.0,3.0,31,0.00,,,0.00,Wunderground v.1.15,2013-05-27 16:11:00,
2013-05-27 12:16:00,70.1,40.4,30.11,WNW,282,2.0,6.0,34,0.00,,,0.00,Wunderground v.1.15,2013-05-27 16:16:00,
2013-05-27 12:21:00,70.3,39.0,30.12,WNW,295,3.0,7.0,32,0.00,,,0.00,Wunderground v.1.15,2013-05-27 16:21:00,
2013-05-27 12:26:00,70.1,38.9,30.11,WNW,283,2.0,8.0,32,0.00,,,0.00,Wunderground v.1.15,2013-05-27 16:26:00,
2013-05-27 12:31:00,70.1,40.4,30.11,West,264,6.0,6.0,34,0.00,,,0.00,Wunderground v.1.15,2013-05-27 16:31:00,
2013-05-27 12:36:00,70.1,38.9,30.11,SW,219,1.0,7.0,32,0.00,,,0.00,Wunderground v.1.15,2013-05-27 16:36:00,
2013-05-27 12:41:00,70.6,40.9,30.10,NW,326,4.0,5.0,34,0.00,,,0.00,Wunderground v.1.15,2013-05-27 16:41:00,
2013-05-27 12:46:00,70.9,39.6,30.10,NW,312,2.0,6.0,32,0.00,,,0.00,Wunderground v.1.15,2013-05-27 16:46:00,
2013-05-27 12:51:00,70.6,36.8,30.10,West,263,3.0,8.0,29,0.00,,,0.00,Wunderground v.1.15,2013-05-27 16:51:00,
2013-05-27 12:57:00,70.6,40.1,30.10,West,267,8.0,8.0,33,0.00,,,0.00,Wunderground v.1.15,2013-05-27 16:57:00,
2013-05-27 13:02:00,70.6,39.3,30.10,WSW,243,0.0,3.0,32,0.00,,,0.00,Wunderground v.1.15,2013-05-27 17:02:00,
2013-05-27 13:07:00,70.6,39.3,30.09,NNW,333,5.0,12.0,32,0.00,,,0.00,Wunderground v.1.15,2013-05-27 17:07:00,
2013-05-27 13:12:00,70.7,39.4,30.09,WNW,302,1.0,9.0,32,0.00,,,0.00,Wunderground v.1.15,2013-05-27 17:12:00,
2013-05-27 13:17:00,70.9,41.1,30.09,West,267,1.0,9.0,34,0.00,,,0.00,Wunderground v.1.15,2013-05-27 17:17:00,
2013-05-27 13:22:00,72.0,41.3,30.08,WSW,245,4.0,5.0,33,0.00,,,0.00,Wunderground v.1.15,2013-05-27 17:22:00,
2013-05-27 13:27:00,71.9,39.6,30.08,North,6,5.0,10.0,31,0.00,,,0.00,Wunderground v.1.15,2013-05-27 17:27:00,
2013-05-27 13:32:00,71.9,40.4,30.08,NNE,22,3.0,7.0,32,0.00,,,0.00,Wunderground v.1.15,2013-05-27 17:32:00,
2013-05-27 13:37:00,72.0,40.5,30.08,WSW,248,3.0,8.0,32,0.00,,,0.00,Wunderground v.1.15,2013-05-27 17:37:00,
2013-05-27 13:42:00,72.2,40.7,30.08,West,277,3.0,5.0,32,0.00,,,0.00,Wunderground v.1.15,2013-05-27 17:42:00,
2013-05-27 13:47:00,71.7,41.8,30.08,WNW,284,7.0,14.0,34,0.00,,,0.00,Wunderground v.1.15,2013-05-27 17:47:00,
2013-05-27 13:52:00,71.6,41.0,30.08,SSW,197,1.0,4.0,33,0.00,,,0.00,Wunderground v.1.15,2013-05-27 17:52:00,
2013-05-27 13:57:00,72.7,41.9,30.07,NNW,330,4.0,5.0,33,0.00,,,0.00,Wunderground v.1.15,2013-05-27 17:57:00,
2013-05-27 14:02:00,73.1,41.5,30.07,WNW,292,7.0,9.0,32,0.00,,,0.00,Wunderground v.1.15,2013-05-27 18:02:00,
2013-05-27 14:07:00,73.0,41.4,30.07,WNW,285,4.0,9.0,32,0.00,,,0.00,Wunderground v.1.15,2013-05-27 18:07:00,
2013-05-27 14:12:00,72.7,41.1,30.07,West,264,3.0,8.0,32,0.00,,,0.00,Wunderground v.1.15,2013-05-27 18:12:00,
2013-05-27 14:17:00,73.0,40.6,30.07,WNW,287,2.0,8.0,31,0.00,,,0.00,Wunderground v.1.15,2013-05-27 18:17:00,
2013-05-27 14:22:00,72.4,40.0,30.06,SW,218,1.0,4.0,31,0.00,,,0.00,Wunderground v.1.15,2013-05-27 18:22:00,
2013-05-27 14:27:00,72.8,39.5,30.06,NNE,23,3.0,9.0,30,0.00,,,0.00,Wunderground v.1.15,2013-05-27 18:27:00,
2013-05-27 14:32:00,73.5,41.0,30.06,NNE,23,1.0,5.0,31,0.00,,,0.00,Wunderground v.1.15,2013-05-27 18:32:00,
2013-05-27 14:37:00,73.7,41.2,30.06,WSW,243,3.0,5.0,31,0.00,,,0.00,Wunderground v.1.15,2013-05-27 18:37:00,
2013-05-27 14:42:00,73.4,42.5,30.06,SW,235,5.0,8.0,33,0.00,,,0.00,Wunderground v.1.15,2013-05-27 18:42:00,
2013-05-27 14:48:00,73.4,40.9,30.06,South,172,3.0,10.0,31,0.00,,,0.00,Wunderground v.1.15,2013-05-27 18:48:00,
2013-05-27 14:53:00,73.7,41.2,30.06,SSE,153,4.0,7.0,31,0.00,,,0.00,Wunderground v.1.15,2013-05-27 18:53:00,
2013-05-27 14:58:00,73.7,41.2,30.05,WNW,283,5.0,9.0,31,0.00,,,0.00,Wunderground v.1.15,2013-05-27 18:58:00,
2013-05-27 15:03:00,73.8,41.3,30.05,West,275,3.0,5.0,31,0.00,,,0.00,Wunderground v.1.15,2013-05-27 19:03:00,
2013-05-27 15:08:00,73.8,41.3,30.05,West,271,3.0,6.0,31,0.00,,,0.00,Wunderground v.1.15,2013-05-27 19:08:00,
2013-05-27 15:13:00,73.6,39.4,30.05,West,281,6.0,9.0,29,0.00,,,0.00,Wunderground v.1.15,2013-05-27 19:13:00,
2013-05-27 15:18:00,73.2,39.9,30.05,WSW,248,2.0,9.0,30,0.00,,,0.00,Wunderground v.1.15,2013-05-27 19:18:00,
2013-05-27 15:23:00,73.6,41.1,30.05,SW,224,3.0,7.0,31,0.00,,,0.00,Wunderground v.1.15,2013-05-27 19:23:00,
2013-05-27 15:28:00,73.8,39.5,30.05,WNW,300,3.0,9.0,29,0.00,,,0.00,Wunderground v.1.15,2013-05-27 19:28:00,
2013-05-27 15:33:00,74.3,41.7,30.05,WNW,288,3.0,10.0,31,0.00,,,0.00,Wunderground v.1.15,2013-05-27 19:33:00,
2013-05-27 15:38:00,74.6,40.2,30.05,NNW,335,5.0,10.0,29,0.00,,,0.00,Wunderground v.1.15,2013-05-27 19:38:00,
2013-05-27 15:43:00,74.5,40.1,30.04,NW,309,4.0,10.0,29,0.00,,,0.00,Wunderground v.1.15,2013-05-27 19:43:00,
2013-05-27 15:48:00,74.3,40.8,30.04,WNW,294,1.0,11.0,30,0.00,,,0.00,Wunderground v.1.15,2013-05-27 19:48:00,
2013-05-27 15:53:00,74.2,40.8,30.04,WNW,300,1.0,4.0,30,0.00,,,0.00,Wunderground v.1.15,2013-05-27 19:53:00,
2013-05-27 15:59:00,75.4,40.0,30.04,NNE,27,4.0,8.0,28,0.00,,,0.00,Wunderground v.1.15,2013-05-27 19:59:00,
2013-05-27 16:04:00,75.5,41.0,30.04,WNW,285,5.0,7.0,29,0.00,,,0.00,Wunderground v.1.15,2013-05-27 20:04:00,
2013-05-27 16:09:00,74.9,40.5,30.04,SSE,153,5.0,12.0,29,0.00,,,0.00,Wunderground v.1.15,2013-05-27 20:09:00,
2013-05-27 16:14:00,74.9,39.6,30.03,NNW,345,9.0,9.0,28,0.00,,,0.00,Wunderground v.1.15,2013-05-27 20:14:00,
2013-05-27 16:19:00,74.7,40.3,30.03,NW,304,3.0,10.0,29,0.00,,,0.00,Wunderground v.1.15,2013-05-27 20:19:00,
2013-05-27 16:24:00,74.7,40.3,30.03,SW,225,3.0,8.0,29,0.00,,,0.00,Wunderground v.1.15,2013-05-27 20:24:00,
2013-05-27 16:29:00,74.7,40.3,30.02,West,278,6.0,10.0,29,0.00,,,0.00,Wunderground v.1.15,2013-05-27 20:29:00,
2013-05-27 16:34:00,74.9,41.4,30.02,North,358,1.0,10.0,30,0.00,,,0.00,Wunderground v.1.15,2013-05-27 20:34:00,
2013-05-27 16:39:00,75.3,40.8,30.02,West,269,3.0,10.0,29,0.00,,,0.00,Wunderground v.1.15,2013-05-27 20:39:00,
2013-05-27 16:44:00,75.3,40.8,30.02,West,273,7.0,7.0,29,0.00,,,0.00,Wunderground v.1.15,2013-05-27 20:44:00,
2013-05-27 16:49:00,75.1,40.7,30.02,WNW,298,4.0,9.0,29,0.00,,,0.00,Wunderground v.1.15,2013-05-27 20:49:00,
2013-05-27 16:54:00,75.0,40.6,30.02,NNW,328,2.0,9.0,29,0.00,,,0.00,Wunderground v.1.15,2013-05-27 20:54:00,
2013-05-27 16:59:00,75.0,41.5,30.02,West,259,5.0,9.0,30,0.00,,,0.00,Wunderground v.1.15,2013-05-27 20:59:00,
2013-05-27 17:04:00,74.7,41.2,30.02,WNW,300,2.0,8.0,30,0.00,,,0.00,Wunderground v.1.15,2013-05-27 21:04:00,
2013-05-27 17:09:00,74.4,41.8,30.02,WNW,301,2.0,8.0,31,0.00,,,0.00,Wunderground v.1.15,2013-05-27 21:09:00,
2013-05-27 17:14:00,74.2,41.6,30.02,WSW,255,2.0,6.0,31,0.00,,,0.00,Wunderground v.1.15,2013-05-27 21:14:00,
2013-05-27 17:20:00,74.2,42.4,30.02,SSW,207,2.0,8.0,32,0.00,,,0.00,Wunderground v.1.15,2013-05-27 21:20:00,
2013-05-27 17:25:00,74.4,42.6,30.02,WSW,253,3.0,10.0,32,0.00,,,0.00,Wunderground v.1.15,2013-05-27 21:25:00,
2013-05-27 17:30:00,74.2,43.2,30.02,WNW,298,2.0,10.0,33,0.00,,,0.00,Wunderground v.1.15,2013-05-27 21:30:00,
2013-05-27 17:35:00,74.1,43.1,30.02,SSW,208,3.0,9.0,33,0.00,,,0.00,Wunderground v.1.15,2013-05-27 21:35:00,
2013-05-27 17:40:00,73.9,42.2,30.02,West,280,4.0,4.0,32,0.00,,,0.00,Wunderground v.1.15,2013-05-27 21:40:00,
2013-05-27 17:45:00,73.8,42.9,30.02,WNW,284,6.0,10.0,33,0.00,,,0.00,Wunderground v.1.15,2013-05-27 21:45:00,
2013-05-27 17:50:00,73.4,43.3,30.02,West,266,3.0,4.0,34,0.00,,,0.00,Wunderground v.1.15,2013-05-27 21:50:00,
2013-05-27 17:55:00,73.3,42.4,30.02,WNW,285,2.0,11.0,33,0.00,,,0.00,Wunderground v.1.15,2013-05-27 21:55:00,
2013-05-27 18:00:00,72.9,42.9,30.02,West,277,4.0,4.0,34,0.00,,,0.00,Wunderground v.1.15,2013-05-27 22:00:00,
2013-05-27 18:05:00,72.7,42.7,30.02,NNE,23,2.0,11.0,34,0.00,,,0.00,Wunderground v.1.15,2013-05-27 22:05:00,
2013-05-27 18:10:00,72.5,43.3,30.02,WSW,248,4.0,5.0,35,0.00,,,0.00,Wunderground v.1.15,2013-05-27 22:10:00,
2013-05-27 18:15:00,72.2,42.3,30.02,WNW,294,2.0,7.0,34,0.00,,,0.00,Wunderground v.1.15,2013-05-27 22:15:00,
2013-05-27 18:21:00,71.9,42.8,30.02,WNW,283,4.0,6.0,35,0.00,,,0.00,Wunderground v.1.15,2013-05-27 22:21:00,
2013-05-27 18:26:00,71.7,42.6,30.02,NW,311,2.0,8.0,35,0.00,,,0.00,Wunderground v.1.15,2013-05-27 22:26:00,
2013-05-27 18:31:00,71.5,42.4,30.02,West,271,2.0,5.0,35,0.00,,,0.00,Wunderground v.1.15,2013-05-27 22:31:00,
2013-05-27 18:36:00,71.4,42.3,30.02,WNW,287,2.0,8.0,35,0.00,,,0.00,Wunderground v.1.15,2013-05-27 22:36:00,
2013-05-27 18:41:00,71.4,41.6,30.02,WNW,295,4.0,6.0,34,0.00,,,0.00,Wunderground v.1.15,2013-05-27 22:41:00,
2013-05-27 18:46:00,71.2,41.4,30.02,West,269,3.0,8.0,34,0.00,,,0.00,Wunderground v.1.15,2013-05-27 22:46:00,
2013-05-27 18:51:00,71.0,42.0,30.02,West,271,4.0,6.0,35,0.00,,,0.00,Wunderground v.1.15,2013-05-27 22:51:00,
2013-05-27 18:56:00,70.7,41.7,30.02,SW,228,2.0,6.0,35,0.00,,,0.00,Wunderground v.1.15,2013-05-27 22:56:00,
2013-05-27 19:01:00,70.5,42.2,30.02,WSW,245,1.0,3.0,36,0.00,,,0.00,Wunderground v.1.15,2013-05-27 23:01:00,
2013-05-27 19:06:00,70.4,42.2,30.02,WNW,290,3.0,6.0,36,0.00,,,0.00,Wunderground v.1.15,2013-05-27 23:06:00,
2013-05-27 19:11:00,70.2,42.0,30.02,West,279,1.0,4.0,36,0.00,,,0.00,Wunderground v.1.15,2013-05-27 23:11:00,
2013-05-27 19:16:00,70.1,43.3,30.02,WNW,292,2.0,4.0,38,0.00,,,0.00,Wunderground v.1.15,2013-05-27 23:16:00,
2013-05-27 19:21:00,69.9,43.1,30.02,WNW,294,1.0,2.0,38,0.00,,,0.00,Wunderground v.1.15,2013-05-27 23:21:00,
2013-05-27 19:27:00,69.8,43.0,30.02,WNW,283,2.0,5.0,38,0.00,,,0.00,Wunderground v.1.15,2013-05-27 23:27:00,
2013-05-27 19:32:00,69.6,42.9,30.02,WNW,285,1.0,2.0,38,0.00,,,0.00,Wunderground v.1.15,2013-05-27 23:32:00,
2013-05-27 19:36:00,69.4,42.7,30.02,SSE,162,1.0,6.0,38,0.00,,,0.00,Wunderground v.1.15,2013-05-27 23:36:00,
2013-05-27 19:42:00,69.2,43.2,30.02,West,270,0.0,4.0,39,0.00,,,0.00,Wunderground v.1.15,2013-05-27 23:42:00,
2013-05-27 19:47:00,68.9,42.9,30.02,West,276,2.0,4.0,39,0.00,,,0.00,Wunderground v.1.15,2013-05-27 23:47:00,
2013-05-27 19:52:00,68.8,43.5,30.02,WNW,291,0.0,2.0,40,0.00,,,0.00,Wunderground v.1.15,2013-05-27 23:52:00,
2013-05-27 19:57:00,68.5,43.2,30.02,WNW,293,2.0,4.0,40,0.00,,,0.00,Wunderground v.1.15,2013-05-27 23:57:00,
2013-05-27 20:02:00,68.3,43.0,30.02,WSW,246,0.0,3.0,40,0.00,,,0.00,Wunderground v.1.15,2013-05-28 00:02:00,
2013-05-27 20:07:00,68.1,43.5,30.03,West,281,1.0,5.0,41,0.00,,,0.00,Wunderground v.1.15,2013-05-28 00:07:00,
2013-05-27 20:12:00,67.8,43.2,30.03,West,266,4.0,4.0,41,0.00,,,0.00,Wunderground v.1.15,2013-05-28 00:12:00,
2013-05-27 20:18:00,67.5,43.6,30.03,SW,225,2.0,4.0,42,0.00,,,0.00,Wunderground v.1.15,2013-05-28 00:18:00,
2013-05-27 20:23:00,67.3,44.0,30.03,WNW,285,0.0,2.0,43,0.00,,,0.00,Wunderground v.1.15,2013-05-28 00:23:00,
2013-05-27 20:28:00,67.0,43.8,30.03,West,269,0.0,2.0,43,0.00,,,0.00,Wunderground v.1.15,2013-05-28 00:28:00,
2013-05-27 20:33:00,66.6,44.0,30.03,West,274,2.0,2.0,44,0.00,,,0.00,Wunderground v.1.15,2013-05-28 00:33:00,
2013-05-27 20:38:00,66.4,44.4,30.03,West,274,1.0,3.0,45,0.00,,,0.00,Wunderground v.1.15,2013-05-28 00:38:00,
2013-05-27 20:43:00,66.2,43.6,30.03,WNW,288,1.0,3.0,44,0.00,,,0.00,Wunderground v.1.15,2013-05-28 00:43:00,
2013-05-27 20:48:00,65.9,43.9,30.03,West,281,1.0,3.0,45,0.00,,,0.00,Wunderground v.1.15,2013-05-28 00:48:00,
2013-05-27 20:53:00,65.6,44.3,30.03,West,280,1.0,3.0,46,0.00,,,0.00,Wunderground v.1.15,2013-05-28 00:53:00,
2013-05-27 20:58:00,65.4,44.1,30.03,WNW,283,2.0,3.0,46,0.00,,,0.00,Wunderground v.1.15,2013-05-28 00:58:00,
2013-05-27 21:03:00,65.3,44.0,30.04,West,281,1.0,3.0,46,0.00,,,0.00,Wunderground v.1.15,2013-05-28 01:03:00,
2013-05-27 21:08:00,65.2,43.9,30.04,West,280,1.0,3.0,46,0.00,,,0.00,Wunderground v.1.15,2013-05-28 01:08:00,
2013-05-27 21:14:00,65.0,44.3,30.04,WNW,285,2.0,3.0,47,0.00,,,0.00,Wunderground v.1.15,2013-05-28 01:14:00,
2013-05-27 21:19:00,64.9,44.2,30.04,West,281,1.0,3.0,47,0.00,,,0.00,Wunderground v.1.15,2013-05-28 01:19:00,
2013-05-27 21:24:00,64.7,44.0,30.04,West,270,2.0,3.0,47,0.00,,,0.00,Wunderground v.1.15,2013-05-28 01:24:00,
2013-05-27 21:29:00,64.5,44.4,30.04,WNW,293,1.0,3.0,48,0.00,,,0.00,Wunderground v.1.15,2013-05-28 01:29:00,
2013-05-27 21:34:00,64.2,44.1,30.04,West,274,0.0,2.0,48,0.00,,,0.00,Wunderground v.1.15,2013-05-28 01:34:00,
2013-05-27 21:39:00,63.9,44.4,30.05,West,277,2.0,2.0,49,0.00,,,0.00,Wunderground v.1.15,2013-05-28 01:39:00,
2013-05-27 21:44:00,63.7,44.2,30.05,West,278,2.0,3.0,49,0.00,,,0.00,Wunderground v.1.15,2013-05-28 01:44:00,
2013-05-27 21:49:00,63.4,44.4,30.05,WSW,248,0.0,3.0,50,0.00,,,0.00,Wunderground v.1.15,2013-05-28 01:49:00,
2013-05-27 21:54:00,63.0,44.6,30.05,WNW,285,0.0,2.0,51,0.00,,,0.00,Wunderground v.1.15,2013-05-28 01:54:00,
2013-05-27 21:59:00,62.9,44.5,30.05,WNW,285,0.0,2.0,51,0.00,,,0.00,Wunderground v.1.15,2013-05-28 01:59:00,
2013-05-27 22:04:00,62.7,44.3,30.05,West,277,2.0,2.0,51,0.00,,,0.00,Wunderground v.1.15,2013-05-28 02:04:00,
2013-05-27 22:09:00,62.7,44.3,30.05,WNW,291,1.0,2.0,51,0.00,,,0.00,Wunderground v.1.15,2013-05-28 02:09:00,
2013-05-27 22:14:00,62.6,44.7,30.05,WNW,290,1.0,1.0,52,0.00,,,0.00,Wunderground v.1.15,2013-05-28 02:14:00,
2013-05-27 22:19:00,62.4,45.0,30.05,WNW,290,0.0,1.0,53,0.00,,,0.00,Wunderground v.1.15,2013-05-28 02:19:00,
2013-05-27 22:25:00,62.0,44.7,30.05,WNW,285,0.0,1.0,53,0.00,,,0.00,Wunderground v.1.15,2013-05-28 02:25:00,
2013-05-27 22:30:00,61.7,44.9,30.05,WNW,285,0.0,1.0,54,0.00,,,0.00,Wunderground v.1.15,2013-05-28 02:30:00,
2013-05-27 22:35:00,61.3,45.0,30.05,WNW,285,0.0,0.0,55,0.00,,,0.00,Wunderground v.1.15,2013-05-28 02:35:00,
2013-05-27 22:40:00,60.8,45.0,30.05,WNW,285,0.0,0.0,56,0.00,,,0.00,Wunderground v.1.15,2013-05-28 02:40:00,
2013-05-27 22:45:00,60.5,45.2,30.06,West,281,0.0,0.0,57,0.00,,,0.00,Wunderground v.1.15,2013-05-28 02:45:00,
2013-05-27 22:50:00,60.4,45.5,30.06,WSW,243,1.0,3.0,58,0.00,,,0.00,Wunderground v.1.15,2013-05-28 02:50:00,
2013-05-27 22:55:00,61.1,44.8,30.06,WSW,256,2.0,6.0,55,0.00,,,0.00,Wunderground v.1.15,2013-05-28 02:55:00,
2013-05-27 23:00:00,61.6,44.8,30.06,WSW,250,0.0,6.0,54,0.00,,,0.00,Wunderground v.1.15,2013-05-28 03:00:00,
2013-05-27 23:05:00,61.6,44.8,30.06,WNW,290,1.0,2.0,54,0.00,,,0.00,Wunderground v.1.15,2013-05-28 03:05:00,
2013-05-27 23:10:00,61.5,44.7,30.06,SW,228,0.0,3.0,54,0.00,,,0.00,Wunderground v.1.15,2013-05-28 03:10:00,
2013-05-27 23:15:00,61.4,45.1,30.06,West,278,2.0,4.0,55,0.00,,,0.00,Wunderground v.1.15,2013-05-28 03:15:00,
2013-05-27 23:20:00,61.6,44.8,30.06,West,280,2.0,5.0,54,0.00,,,0.00,Wunderground v.1.15,2013-05-28 03:20:00,
2013-05-27 23:25:00,61.7,44.4,30.07,West,266,4.0,4.0,53,0.00,,,0.00,Wunderground v.1.15,2013-05-28 03:25:00,
2013-05-27 23:30:00,61.6,44.3,30.07,WNW,285,1.0,4.0,53,0.00,,,0.00,Wunderground v.1.15,2013-05-28 03:30:00,
2013-05-27 23:35:00,61.5,44.2,30.07,WNW,285,3.0,6.0,53,0.00,,,0.00,Wunderground v.1.15,2013-05-28 03:35:00,
2013-05-27 23:40:00,61.4,44.6,30.07,West,273,2.0,6.0,54,0.00,,,0.00,Wunderground v.1.15,2013-05-28 03:40:00,
2013-05-27 23:45:00,61.4,44.6,30.07,WSW,255,1.0,5.0,54,0.00,,,0.00,Wunderground v.1.15,2013-05-28 03:45:00,
2013-05-27 23:50:00,61.3,45.0,30.07,WNW,289,2.0,5.0,55,0.00,,,0.00,Wunderground v.1.15,2013-05-28 03:50:00,
2013-05-27 23:55:00,61.2,44.9,30.07,WSW,249,2.0,3.0,55,0.00,,,0.00,Wunderground v.1.15,2013-05-28 03:55:00,